Location: Unspecified
(56.5167°N, 0.0000°E)
Time: 06:16:47
(UTC+01:00)

Cosmos 1674 - Visible Passes

Search period start: 27 March 2015 00:00
Search period end: 06 April 2015 01:00
Orbit: 507 x 535 km, 82.5° (Epoch: 26 March)

Date Brightness Start Highest point End Pass type
(mag) Time Alt. Az. Time Alt. Az. Time Alt. Az.
27 Mar 3.0 20:09:08 10° N 20:12:50 46° ENE 20:16:32 10° SSE visible
27 Mar 5.1 21:45:27 10° NW 21:48:28 22° W 21:51:26 10° SW visible
28 Mar 5.0 21:32:02 10° NW 21:35:12 25° W 21:38:20 10° SW visible
29 Mar 4.8 22:18:38 10° NNW 22:21:56 27° W 22:25:12 10° SSW visible
30 Mar 4.6 22:05:14 10° NNW 22:08:39 31° W 22:12:02 10° SSW visible
31 Mar 4.5 21:51:51 10° NNW 21:55:21 34° W 21:58:51 10° SSW visible
01 Apr 4.3 21:38:27 10° NNW 21:42:03 38° W 21:45:38 10° SSW visible
02 Apr 4.0 21:25:04 10° NNW 21:28:44 43° W 21:32:24 10° SSW visible
